Other Public Products
Issued by NWS Grand Forks, ND

Home | Current Version | Previous Version | Graphics & Text | Print | Product List | Glossary On
Versions: 1 2 3 4 5 6 7 8 9 10 11 12 13 14 15 16 17 18 19 20 21 22 23 24 25 26 27 28 29 30 31 32 33 34 35 36 37 38 39 40 41 42 43 44 45 46 47 48 49 50
000
FPUS83 KFGF 161931
OPUFGF
PRAIRIE TO PINES WEATHER ROUNDUP
NATIONAL WEATHER SERVICE EASTERN NORTH DAKOTA/GRAND FORKS ND
100 PM CST MON JAN 16 2017

 **SATELLITE DATA USED TO AUGMENT SKY COVER AT AUTOMATED STATIONS**
 *****  WEATHER ACROSS EASTERN NORTH DAKOTA  *****

CITY           SKY/WX    TMP DP  RH WIND       PRES   REMARKS
GRAND FORKS    FAIR      18  10  71 SW6       30.05F WCI  10
GRAND FORKS AF FAIR      21  10  60 W3        30.04F
GRAND CITY NWS NOT AVBL
BUXTON           N/A     24  11  59 SW3         N/A
DEVILS LAKE    FAIR      14   9  80 NW7       30.02F WCI   4
FARGO          FAIR      18  10  71 S3        30.07F
WAHPETON ARPT  FAIR      19  14  79 W3        30.08F
$$

 *****  WEATHER ACROSS CENTRAL AND WESTERN NORTH DAKOTA  *****

CITY           SKY/WX    TMP DP  RH WIND       PRES   REMARKS
JAMESTOWN      FAIR      17  10  74 SW5       30.03F WCI  10
BISMARCK       FAIR      23  11  60 NW7       30.07F WCI  15
MINOT          FAIR      27  20  75 W9        30.04F WCI  18
MINOT AFB      FAIR      24  19  78 NW17      30.03F WCI  11
GARRISON         N/A     20  13  74 NW8       30.05F WCI  10
WILLISTON      FAIR      16   9  74 SW8       30.12F WCI   5
DICKINSON      FAIR      19  12  74 W13       30.05F WCI   6
HETTINGER      FAIR      21  13  71 NW12      30.07F WCI   9
$$

 *****  OTHER OBSERVATIONS NORTHEAST NORTH DAKOTA  *****

CITY           SKY/WX    TMP DP  RH WIND       PRES   REMARKS
WALHALLA       NOT AVBL
LANGDON        NOT AVBL
CAVALIER         N/A     21  12  68 NW5       30.01F WCI  15
GRAFTON        FAIR      18   9  68 CALM      30.05F
CANDO          NOT AVBL
FORT TOTTEN      N/A     19   9  65 W5        29.95S WCI  12
ROLLA            N/A    N/A N/A N/A MISG        N/A
RUGBY            N/A     14   9  79 W3        30.02F
 ***** THE ABOVE OBSERVATIONS ARE NON NWS ARE NOT QUALITY
        CONTROLLED AND MAY MIS-REPORT RAIN FOR SNOW...
$$

 *****  OTHER OBSERVATIONS SOUTHEAST NORTH DAKOTA *****

CITY           SKY/WX    TMP DP  RH WIND       PRES   REMARKS
COOPERSTOWN    FAIR      16  10  79 NW10      30.02F WCI   3
VALLEY CITY    MIX PCPN  18  12  79 W7        30.05F WCI   8
OAKES          NOT AVBL
GWINNER        FAIR      23  14  68 NW6       30.05F WCI  16
SHEYENNE NWR     N/A     20   7  57 W7        29.95S WCI  11
BUFFALO          N/A     18   7  62 W8          N/A  WCI   7
WYNDMERE         N/A     21  18  86 W5          N/A  WCI  15
 ***** THE ABOVE OBSERVATIONS ARE NON NWS ARE NOT QUALITY
       CONTROLLED AND MAY MIS-REPORT RAIN FOR SNOW...
$$

  *****  WEATHER ACROSS NORTHERN MINNESOTA  *****

CITY           SKY/WX    TMP DP  RH WIND       PRES   REMARKS
FLAG ISLAND    FAIR      14   9  79 SE7       30.02F WCI   4
WARROAD        FAIR      23  12  63 CALM      30.03S
ROSEAU         FAIR      16   9  73 CALM      30.03F
HALLOCK        FAIR      12   7  79 SE7       30.03S WCI   2
THF RVR FALLS  FAIR      20  11  68 S9        30.04F WCI   9
HALSTAD          N/A     16   9  73 S5          N/A  WCI   9
FOSSTON        FAIR      23  14  68 S7        30.03F WCI  15
BAUDETTE       FAIR      21  11  65 E3        30.02F
WASKISH        FAIR      25  18  74 W5        30.03F WCI  19
CROOKSTON      FAIR      16  10  79 S9        30.06F WCI   4
$$
  *****  WEATHER ACROSS CENTRAL AND WEST MINNESOTA  *****

CITY           SKY/WX    TMP DP  RH WIND       PRES   REMARKS
BEMIDJI        FAIR      26  19  73 CALM      30.02F
PARK RAPIDS    FAIR      23  18  81 CALM      30.04F
WADENA         FAIR      25  18  74 CALM      30.04F
DETROIT LAKES  FAIR      27  23  86 CALM      30.05S
MOORHEAD       FAIR      16  10  79 S5        30.07F WCI   9
FERGUS FALLS   FAIR      21  16  79 CALM      30.10F
ELBOW LAKE     FAIR      23  18  83 CALM      30.06F FOG
MORRIS MN      FAIR      27  19  74 CALM      30.04F
STAPLES        FAIR      25  18  74 S5        30.05F WCI  19
WHEATON        FAIR      25  19  80 N3        30.09F
$$
  *****  WEATHER ELSEWHERE ACROSS MINNESOTA  *****

CITY           SKY/WX    TMP DP  RH WIND       PRES   REMARKS
DULUTH         FAIR      31  22  69 SW3       30.06F
INTRNTL FALLS  FAIR      27  14  58 CALM      30.04F
ELY            FAIR      34  18  51 CALM      30.04F
CLOQUET        FAIR      28  18  64 S5        30.06F WCI  23
BRAINERD       FAIR      26  19  74 CALM      30.06F
HIBBING        FAIR      24  16  71 E3        30.07F
ALEXANDRIA     FAIR      28  19  69 SE3       30.05F
SAINT CLOUD    CLOUDY    26  22  84 CALM      30.08F
MINNEAPOLIS    CLOUDY    29  19  66 NE5       30.08F WCI  24
$$

  *****  WEATHER ACROSS SOUTH DAKOTA  *****

CITY           SKY/WX    TMP DP  RH WIND       PRES   REMARKS
SIOUX FALLS    CLOUDY    30  23  75 N7        30.01F WCI  23
BROOKINGS      FAIR      28  19  69 N3        30.01F
WATERTOWN      FAIR      21  19  92 CALM      30.00F
HURON          FAIR      19  12  74 N5        30.06F WCI  12
SISSETON         N/A     24  19  81 N7        30.06S WCI  16
ABERDEEN       FAIR      22   6  50 NW3       30.07F
MITCHELL       CLOUDY    26  20  77 NW9       30.05F WCI  17
PIERRE         FAIR      16   9  74 W8        30.07F WCI   5
MOBRIDGE       FAIR      15   5  64 NW7       30.05F WCI   5
RAPID CITY     FAIR      34  19  54 N12       30.06F
$$

  *****  SOME WEATHER IN NEARBY STATES *****

CITY           SKY/WX    TMP DP  RH WIND       PRES   REMARKS
GLASGOW MT     FAIR      13   6  74 CALM      30.11F
GREAT FALLS MT FAIR      30  16  56 S18       30.06F WCI  18
CHEYENNE WY    CLOUDY    33   3  28 N17G24    30.06F WCI  22
SCOTTSBLUFF NE CLOUDY    38  18  44 MISG      30.08F
OMAHA NE       LGT RAIN  34  30  85 N8        29.91F FOG
DES MOINES IA  LGT RAIN  34  32  92 E8        29.92F FOG
DAVENPORT IA   LGT RAIN  36  34  92 SE12      30.03F FOG
CHICAGO IL     LGT RAIN  35  34  96 E8        30.12F FOG
EAU CLAIRE WI  FAIR      26  16  65 NE6       30.12F WCI  19
LA CROSSE WI   MIX PCPN  32  23  69 NW7       30.08F
$$

  *****  SOME NATIONAL WEATHER *****

CITY           SKY/WX    TMP DP  RH WIND       PRES   REMARKS
LA GUARDIA NY  PTSUNNY   43  22  43 SW7       30.37F
RALEIGH NC     CLOUDY    51  26  37 CALM      30.38F
ATLANTA GA     PTSUNNY   69  57  65 CALM      30.25F
NEW ORLEANS LA PTSUNNY   77  65  66 S14       30.11F
OKLAHOMA CITY  PTSUNNY   47  38  71 SW17      29.93F
ALBUQUERQUE NM PTSUNNY   42  37  82 S5        30.01F
SALT LAKE CITY FAIR      28  17  63 NW6       30.30F WCI  22
LOS ANGELES CA FAIR      60  50  69 W6        30.10F
BOISE ID       FAIR       9   4  80 SW5       30.48F WCI   1
SEATTLE WA     PTSUNNY   40  29  64 S3        30.16F
$$

*** WEATHER ACROSS MANITOBA...SASKATCHEWAN AND ONTARIO ***
                ***ONTARIO***

CITY           SKY/WX    TMP DP  RH WIND       PRES   REMARKS
GERALDTON      MOSUNNY   27  18  69 N3        30.07S
THUNDER BAY    MOSUNNY   32  16  51 VRB2      30.10F
SIOUX LOOKOUT  PTSUNNY   23  12  63 S6        30.04F WCI  16
TORONTO        PTSUNNY   36  19  51 W12       30.26F
BIG TROUT LK   CLOUDY    16  14  93 SE3       30.08R
PICKLE LAKE    CLOUDY    19  18  93 S5        30.06R FOG     WCI  13
DRYDEN         SUNNY     19  10  68 CALM      30.03F
KENORA         PTSUNNY   19   9  63 S5        30.02F WCI  13
$$
                *** MANITOBA***

CITY           SKY/WX    TMP DP  RH WIND       PRES   REMARKS
BRANDON        MOSUNNY   19  14  79 W10       30.02F WCI   8
DAUPHIN        SUNNY     30  23  74 W17       29.99F WCI  18
ISLAND LAKE    PTSUNNY   21  19  93 SE6       29.99F WCI  14
PILOT MOUND      N/A     18  10  73 NW6         N/A  WCI   9
THE PAS        PTSUNNY   32  21  64 SW6       29.89F
THOMPSON       LGT SNOW  21  19  93 S7        29.86F WCI  13
WINNIPEG       MOSUNNY   18  10  73 W3        30.04F
LYNN LAKE      SUNNY     23  21  93 S7        29.73F WCI  15
CHURCHILL      FLURRIES  -4  -8  84 S18G25    29.89F WCI -26
GILLAM         CLOUDY     7   1  78 S7        29.96F WCI  -5
$$
                ***SASKATCHEWAN***

CITY           SKY/WX    TMP DP  RH WIND       PRES   REMARKS
ESTEVAN        MOSUNNY   19  12  73 W6        30.07  WCI  11
KINDERSLEY     PTSUNNY   23  16  74 S13       29.94F WCI  11
LLOYDMINSTER   CLOUDY    32  16  51 SW16      29.82F WCI  21
PRINCE ALBERT  CLOUDY    23  21  93 SW10      29.89F WCI  12
REGINA         MOSUNNY   21  16  79 S5        30.04F WCI  15
YORKTON        SUNNY     25  18  74 S9        30.00F WCC1F1C2F2C3F3C4F4C5F5C6F6C7F7C8F8C9F9CaFaCbFbCcFcCdFdCe!



USA.gov is the U.S. government's official web portal to all federal, state and local government web resources and services.